ATLAS 5 CENTAUR DEB, 46608

Orbit data source: Space-Track

ATLAS 5 CENTAUR DEB, 46608 is space debris in HEO originally from a launch on Wed, 17 Oct 2018 UTC launched from the Air Force Eastern Test Range (AFETR). Debris objects in space refer to the collection of defunct objects orbiting the Earth. Examples of debris include non-operational satellites, rocket bodies, and fragments generated from explosions, collisions, or faulty payload assembly.

Loading next visibility...
Identifier
46608, 2018-079CG
Orbit
HEO
Country
Flag of USUS
Related business
Flag of USUnited Launch Alliance/Lockheed Martin (US)
Manufacturer
ULA Decatur
Mission
Spacecraft
Bus & Motor
Unknown
Mass
Unknown
Launch date (UTC)
2018-10-17 (7 years ago)
Launch vehicle
Unknown
Launch site
Air Force Eastern Test Range (AFETR)
Object type
Payload
Rocket body
Debris
Shape & HBR
Unknown shape, 1.1 m
Radar Cross Section
Small (<0.1 m²)

Expand to show TLE details & history
Last TLE update: 5 days ago

TLE from 5 days ago
0 ATLAS 5 CENTAUR DEB
1 46608U 18079CG  25294.81514126 -.00000077  00000-0  00000-0 0  9994
2 46608  13.2474  58.2616 4674122 264.7613  42.3811  1.79362254 25993
Epoch: 2025-10-21T19:33Z
TLE epoch observation values (Epoch: 2025-10-21T19:33:48.204Z)
Latitude
-0.00001°
Longitude
94.2402°
Altitude
16,966.827 km
Speed
4.497 km/s
True Right ascension
03h 52m 45s
True Declination
0° 00' 00"
Sunlit
Object was in daylight at epoch
Visualization orbit readout
Latitude
Unknown
Longitude
Unknown
Altitude
Unknown
Speed
Unknown
Apparent Right ascension
Unknown
Apparent Declination
Unknown
Sunlit
N/A
Visualization observer readout
Local Sidereal Time
09:35:23
Azimuth
Unknown
Elevation
Unknown
Doppler factor
Unknown
Orbital elements
Apogee altitude
35,613.681 km
Perigee altitude
8,862.523 km
Semi-major axis
28,616.239 km
Eccentricity
0.46741
Inclination
13.2474°
RAAN
58.2616°
Arg. of periapsis
264.7613°
True anomaly
95.42663°
Mean anomaly
42.3811°
Eccentric anomaly
67.04025°
Mean motion
0.44836 °/min
Orbital period
802.93 mins
BSTAR
0
Loading maneuver chart data...
Computing Atmospheric mass density...

Documentation

Showing up to 5 results
|